カタログに戻る

STARLINK-31265

運用中通信VLEO
NORAD 59074·PAYLOAD·🇺🇸 United States

打ち上げ Feb 29, 2024 から Cape Canaveral Space Force Station

Loading…

次のパス (今後24時間)

TLE

最新Source: CelesTrak SupGP

元期: Sep 14, 2026, 22:06 UTC

1 59074C 24041A   26257.92131944 -.00021243  00000+0 -76944-3 0  2574
2 59074  43.0008 322.0353 0001533 267.0093  31.1893 15.27588239    15

AllMySatでSTARLINK-31265をリアルタイム追跡

Download on the App Store